Location: Castillon
(43.0896°N, 0.2156°E)
Time: 03:37:03
(UTC+00:00)

Cosmos 1980 Rocket - Pass Details

Date: 17 October 2021
Orbit: 828 x 851 km, 71.0° (Epoch: 07 December)

Event Time Altitude Azimuth Distance (km) Brightness Sun altitude
Exits shadow 03:53:18 14° 338° (NNW) 2,197 4.3 -26.5°
Maximum altitude 03:58:15 79° 64° (ENE) 871 2.2 -25.7°
Drops below altitude 10° 04:03:56 10° 152° (SSE) 2,467 4.8 -24.6°
Sets 04:06:22 0° 154° (SSE) 3,396 5.5 -24.2°
